Regional Weather Roundup
Issued by NWS

Home | Current Version | Previous Version | Graphics & Text | Print | Product List | Glossary On
Versions: 1 2 3 4 5 6 7 8 9 10 11 12 13 14 15 16 17 18 19 20 21 22 23 24 25 26 27 28 29 30 31 32 33 34 35 36 37 38 39 40 41 42 43 44 45 46 47 48 49 50
000
ASUS45 KTFX 151904
RWRMT
MONTANA HOURLY WEATHER ROUNDUP
NATIONAL WEATHER SERVICE GREAT FALLS MT
104 PM MDT TUE APR 15 2014

NOTE: "FAIR" INDICATES FEW OR NO CLOUDS BELOW 12000 FEET WITH NO
SIGNIFICANT WEATHER AND/OR OBSTRUCTIONS TO VISIBILITY.

* THESE STATIONS ARE NOT UNDER NWS QUALITY CONTROL. THEY DO NOT
   REPORT WEATHER SUCH AS PRECIPITATION OR FOG.

MTZ001>007-043-152000-
WEST OF THE DIVIDE
CITY           SKY/WX    TMP DP  RH WIND       PRES   REMARKS
KALISPELL      CLOUDY    50  25  38 W8        29.77S
MISSOULA       CLOUDY    46  28  50 W16       29.87R
BUTTE          CLOUDY    39  30  70 NW17G22   29.77S WCI  30
MULLAN PASS    SNOW      28  28 100 VRB3      29.84S VSB M1/4
* ESSEX        N/A       41  32  70 W4         N/A
* LINCOLN      N/A       44  25  47 SW9G21     N/A
* LOOKOUT PASS N/A       33  32  96 NE7        N/A   WCI  27
* POLSON       N/A       44  31  60 SW3G11     N/A
* SEELEY LAKE  N/A       40  33  76 NW7G18     N/A   WCI  35
* THOMP F APT  CLOUDY    42  14  32 S9G16      N/A
* YAAK HILL    N/A       53  26  35 SW4G11     N/A
$$

MTZ008-052>055-152000-
SOUTHWEST MONTANA
CITY           SKY/WX    TMP DP  RH WIND       PRES   REMARKS
BOZEMAN        CLOUDY    54  25  33 W16       29.71F
DILLON         CLOUDY    54  18  24 SW28G35   29.72F
W YELLOWSTONE  N/A       40  15  36 SW6G13     N/A   WCI  36
* THREE FORKS  CLOUDY    54  27  35 W15G28     N/A
* BOULDER HILL N/A       41  21  45 VRB2G7     N/A
* MONIDA PASS  N/A       41  14  33 SE16G21    N/A
* RAYNOLDS PAS N/A       39  20  46 SE12G21    N/A   WCI  32
* WHITEHALL    N/A       53  23  31 NW12G24    N/A
* WISE RIVER   N/A       41  26  55 W15G29     N/A
$$

MTZ009>010-012-014-046-048-049-054-152000-
EAST SLOPES AND CENTRAL MONTANA
CITY           SKY/WX    TMP DP  RH WIND       PRES   REMARKS
CUT BANK       CLOUDY    50  27  41 W24G33    29.68R
GREAT FALLS    CLOUDY    43  36  76 SW15      29.68F
HELENA         CLOUDY    48  32  54 W14G24    29.75S
MALMSTROM AFB  LGT RAIN  46  32  58 SW18G23   29.67R
* CONRAD       CLOUDY    52  27  38 W26G35     N/A
* DEARBORN     N/A       51  24  35 S18G27     N/A
* EAST GLACIER N/A       40  27  60 SW11       N/A   WCI  33
* MONARCH      N/A       41  18  39 W19G29     N/A
* PENDROY      N/A       46  25  44 NW16       N/A
* ROGERS PASS  N/A       40  25  55 E10G23     N/A   WCI  34
* SAINT MARY   N/A       43  27  53 S10G21     N/A
* SWEET GRASS  N/A       52  14  22 NW23G34    N/A
$$

MTZ011-013-016-021-035-040-045-047-050-051-152000-
NORTH CENTRAL MONTANA
CITY           SKY/WX    TMP DP  RH WIND       PRES   REMARKS
HAVRE          CLOUDY    57  18  22 NW20G29   29.57F
LEWISTOWN      CLOUDY    50  23  35 W18G32    29.65S
* CHESTER      N/A       55  14  20 NW16G28    N/A
* DENTON       N/A       54  20  26 W28G34     N/A
* GEYSER       N/A       48  20  33 SW19G32    N/A
* JUDITH GAP   N/A       49  18  29 NW8G22     N/A
* LOMA         N/A       57  21  25 W28G36     N/A
$$

MTZ017>020-022>027-061-062-152000-
NORTHEAST MONTANA
CITY           SKY/WX    TMP DP  RH WIND       PRES   REMARKS
GLASGOW        CLOUDY    52  21  30 W7        29.57F
GLENDIVE       PTSUNNY   54  23  30 SE7       29.59F
JORDAN         PTCLDY    63  14  15 W29G37    29.55F
SIDNEY         CLOUDY    50  21  32 E8        29.63F
WOLF POINT     CLOUDY    54  19  25 CALM      29.58F
* BEAVER HILL  N/A       55  20  25 S7G12      N/A
* CIRCLE       N/A       57  25  29 W12G18     N/A
* LINDSAY DVD  N/A       56  17  22 W14G22     N/A
* NAVAJO       N/A       41  16  36 SE12G17    N/A
* SACO         N/A       54  21  27 W10        N/A
$$

MTZ028>042-056>058-152000-
SOUTHCENTRAL AND SOUTHEAST MONTANA
CITY           SKY/WX    TMP DP  RH WIND       PRES   REMARKS
BAKER          PTSUNNY   61  19  20 W14       29.59F
LIVINGSTON     CLOUDY    48  27  44 W13G29    29.72F
MILES CITY     SUNNY     64  21  19 NW17G30   29.58F
* LAUREL APT   CLOUDY    55  23  29 S13G18     N/A
* ROUNDUP APT  CLOUDY    57  18  22 W22        N/A
* HYSHAM       N/A       60  22  23 W18G38     N/A
* LAME DEER    N/A       58  19  22 W13G27     N/A
* REED POINT   N/A       55  28  35 W20G27     N/A
* ROSCOE HILL  N/A       45  14  28 SW11G24    N/A
$$

REGIONAL REPORTS...DAKOTAS
CITY           SKY/WX    TMP DP  RH WIND       PRES   REMARKS
WILLISTON      CLOUDY    41  30  65 S22       29.67F
DICKINSON      CLOUDY    46  19  34 S16G25    29.63F
CROSBY         SUNNY     37  18  46 SE23G28   29.71F WCI  26
TIOGA          SUNNY     34  16  48 SE21G32   29.73F WCI  22
WATFORD CITY   SUNNY     41  18  39 S16G22    29.64F
BISMARCK       CLOUDY    39  16  39 SE21      29.81F WCI  29
GRAND FORKS    PTSUNNY   27  10  49 SE7       30.02F WCI  19
FARGO          SUNNY     30  10  43 SE7       30.06F WCI  23
BUFFALO SD     PTCLDY    61  19  20 S9G17     29.54F
RAPID CITY     PTCLDY    63  21  20 SE8       29.66F
$$

REGIONAL REPORTS...WYOMING/IDAHO/WASHINGTON
CITY           SKY/WX    TMP DP  RH WIND       PRES   REMARKS
GILLETTE       PTCLDY    61  19  20 W14G26    29.66F
SHERIDAN       PTSUNNY   61  25  25 NW16      29.65F
CODY           CLOUDY    52  23  32 N12       29.69F
YELLOWSTONE LA CLOUDY    36  16  44 W12G30    29.84F WCI  28
SALMON         CLOUDY    48  28  46 N20G25    29.82R
MULLAN PASS    SNOW      28  28 100 VRB3      29.84S VSB M1/4
SPOKANE        PTSUNNY   54  19  25 W15G24    29.90R

$$




USA.gov is the U.S. government's official web portal to all federal, state and local government web resources and services.